Weather observations for the past three days for
Columbus / Bakalar
Imperial (Metric)
Date Time (edt) Wind (mph) Vis. (mi.) Weather Sky Cond. Temperature (ºF) Relative Humidity Wind Chill (°F) Heat Index (°F) Pressure Precipitation (in)
Air Dwpt 6 hour altimeter (in) sea level (mb) 1 hr 3 hr 6 hr
Max. Min.
14 21:45 SW 9 10.00 Fair CLR 84.2 73.4 70% 91 29.99 0.0
14 20:50 SW 9 10.00 Fair CLR 84.2 73.4 70% 91 30 0.0
14 19:45 SW 12 10.00 Fair CLR 86 71.6 62% 92 30.01 0.0
14 18:45 SW 14 10.00 Partly Cloudy SCT045 87.8 71.6 59% 94 30.01 0.0
14 17:45 SW 12 10.00 Partly Cloudy SCT050 87.8 71.6 59% 94 30.02 0.0
14 16:50 E 9 10.00 Partly Cloudy SCT050 SCT060 86 73.4 66% 93 30.02 0.0
14 15:50 NE 14 G 21 10.00 Mostly Cloudy SCT041 BKN049 BKN060 80.6 71.6 74% 85 30.05 0.0
14 14:45 W 12 10.00 Partly Cloudy SCT039 SCT046 SCT070 87.8 75.2 66% 98 30.05 0.0
14 13:45 SW 9 10.00 Fair CLR 86 73.4 66% 93 30.07 0.0
14 12:45 SW 15 G 23 10.00 Fair CLR 86 73.4 66% 93 30.08 0.0
14 11:45 SW 15 10.00 Fair CLR 84.2 73.4 70% 91 30.09 0.0
14 10:55 SW 12 10.00 Fair CLR 82.4 73.4 74% 88 30.11 0.0
14 09:55 SW 12 10.00 Fair CLR 78.8 73.4 84% 82 30.12 0.0
14 07:45 Calm 10.00 Fair CLR 71.6 69.8 94% 30.12 0.0
14 06:45 Calm 10.00 Fair CLR 68 68 100% 30.11 0.0
14 06:30 Calm 10.00 Fair CLR 68 68 100% 30.11 0.0
13 21:55 Calm 10.00 Fair CLR 75.2 69.8 83% 75 30.14 0.0
13 20:50 Calm 10.00 Fair CLR 80.6 71.6 74% 85 30.14 0.0
13 19:55 Calm 10.00 Fair CLR 84.2 71.6 66% 90 30.14 0.0
13 18:58 Calm 10.00 Fair CLR 86 69.8 59% 91 30.14 0.0
13 17:58 Calm 10.00 Fair CLR 87.8 69.8 55% 93 30.14 0.0
13 16:45 SW 7 10.00 Partly Cloudy SCT055 86 68 55% 89 30.16 0.0
13 15:50 Calm 10.00 Fair CLR 87.8 69.8 55% 93 30.17 0.0
13 14:45 Calm 10.00 Fair CLR 86 66.2 52% 88 30.18 0.0
13 13:47 W 7 10.00 Partly Cloudy SCT040 SCT060 86 64.4 49% 87 30.2 0.0
13 12:48 Calm 10.00 Partly Cloudy SCT039 SCT050 84.2 68 58% 87 30.2 0.0
13 11:45 Calm 10.00 Partly Cloudy SCT031 SCT039 82.4 68 62% 85 30.21 0.0
13 10:45 Calm 10.00 Fair CLR 80.6 73.4 79% 85 30.21 0.0
13 09:45 Calm 8.00 A Few Clouds FEW100 77 73.4 89% 78 30.21 0.0
13 08:55 Calm 8.00 A Few Clouds FEW100 73.4 68 83% 30.21 0.0
13 07:50 Calm 4.00 Fog/Mist FEW080 68 68 100% 30.19 0.0
13 06:45 Calm 1.00 Fog/Mist VV005 66.2 66.2 100% 30.18 0.0
12 21:45 Calm 10.00 Fair CLR 75.2 71.6 89% 75 30.12 0.0
12 20:45 W 3 10.00 Fair CLR 77 71.6 83% 78 30.12 0.0
12 19:45 W 3 10.00 Fair CLR 82.4 71.6 70% 87 30.09 0.0
12 18:45 Calm 10.00 Fair CLR 82.4 71.6 70% 87 30.09 0.0
12 17:45 W 7 10.00 Fair CLR 82.4 68 62% 85 30.09 0.0
12 16:45 NW 3 10.00 Fair CLR 84.2 68 58% 87 30.09 0.0
12 15:45 W 5 10.00 Fair CLR 84.2 66.2 55% 87 30.09 0.0
12 14:45 NW 5 10.00 Fair CLR 84.2 68 58% 87 30.11 0.0
12 13:45 Calm 10.00 Partly Cloudy SCT040 SCT050 SCT065 82.4 68 62% 85 30.12 0.0
12 12:45 Calm 10.00 Fair CLR 82.4 68 62% 85 30.14 0.0
12 11:45 Calm 10.00 Mostly Cloudy BKN025 BKN031 78.8 71.6 79% 82 30.14 0.0
12 10:45 Calm 10.00 Fair CLR 77 71.6 83% 78 30.13 0.0
12 09:45 Calm 10.00 Fair CLR 75.2 71.6 89% 75 30.13 0.0
12 08:45 Calm 10.00 Fair CLR 71.6 68 88% 30.12 0.0
12 07:45 Calm 7.00 Fair CLR 66.2 66.2 100% 30.1 0.0
12 06:45 Calm 7.00 Mostly Cloudy SCT055 BKN110 66.2 64.4 94% 30.08 0.0
12 06:30 Calm 7.00 Mostly Cloudy SCT055 BKN110 66.2 64.4 94% 30.08 0.0
Date Time (edt) Wind (mph) Vis. (mi.) Weather Sky Cond. Air Dwpt Max. Min. Relative Humidity Wind Chill (°F) Heat Index (°F) altimeter (in) sea level (mb) 1 hr 3 hr 6 hr
6 hour
Temperature (ºF) Pressure Precipitation (in)